Location: Chaumontel
(49.1247°N, 2.4324°E)
Time: 06:12:04
(UTC+00:00)

COSMOS 2428 - Pass Details

Date: 12 August 2024
Orbit: 842 x 857 km, 70.9° (Epoch: 08 September)

Event Time Altitude Azimuth Distance (km) Brightness Sun altitude
Exits shadow 23:53:27 14° 99° (E) 2,220 4.8 -26.3°
Maximum altitude 23:53:41 14° 96° (E) 2,219 4.8 -26.3°
Drops below altitude 10° 23:56:24 10° 68° (ENE) 2,482 5.4 -26.3°
Sets 00:00:07 0° 43° (NE) 3,428 6.6 -26.3°
